Location: Newark
(40.4833°N, 25.5167°E)
Time: 22:27:53
(UTC+00:00)

N. Korean satellite - Visible Passes

Search period start: 20 October 2019 00:00
Search period end: 30 October 2019 00:00
Orbit: 455 x 508 km, 97.2° (Epoch: 20 October)

Date Brightness Start Highest point End Pass type
(mag) Time Alt. Az. Time Alt. Az. Time Alt. Az.
20 Oct 10.1 03:17:15 10° NE 03:19:28 15° E 03:21:41 10° SE visible
21 Oct 10.4 16:35:01 10° WSW 16:36:06 11° W 16:37:10 10° WNW visible
22 Oct 7.6 03:58:51 10° NNE 04:02:25 53° E 04:06:02 10° S visible
22 Oct 9.4 16:07:49 10° SSW 16:10:36 23° W 16:13:26 10° NW visible
23 Oct 9.2 03:33:59 10° NE 03:37:03 25° E 03:40:08 10° SSE visible
24 Oct 10.3 03:09:57 10° ENE 03:11:36 13° E 03:13:13 10° ESE visible
25 Oct 10.1 16:26:15 10° SW 16:28:09 14° W 16:30:04 10° WNW visible
26 Oct 8.1 03:51:04 10° NNE 03:54:34 42° E 03:58:05 10° S visible
26 Oct 8.9 15:59:38 10° SSW 16:02:40 29° W 16:05:46 10° NW visible
27 Oct 9.6 03:26:20 10° NE 03:29:10 21° E 03:31:59 10° SE visible
28 Oct 10.6 03:03:19 10° E 03:03:39 10° E 03:03:58 10° E visible
29 Oct 6.9 04:08:19 10° NNE 04:12:01 75° ESE 04:15:43 10° S visible
29 Oct 9.8 16:17:46 10° SW 16:20:10 18° W 16:22:37 10° NW visible
